Location: Islay
(41.3172°N, 105.1346°W)
Time: 00:14:59
(UTC+00:00)

ARIANE 6 FM1 Upper Stage - Visible Passes

Search period start: 17 April 2026 00:00
Search period end: 27 April 2026 00:00
Orbit: 525 x 604 km, 62.0° (Epoch: 16 April)

Date Brightness Start Highest point End Pass type
(mag) Time Alt. Az. Time Alt. Az. Time Alt. Az.
17 Apr 5.5 02:17:03 10° WNW 02:19:33 15° NW 02:22:00 10° N visible
18 Apr 5.7 02:17:48 10° NW 02:19:22 12° NNW 02:20:55 10° N visible
22 Apr 5.7 05:40:04 10° NNE 05:40:28 11° NNE 05:40:28 11° NNE visible
23 Apr 5.5 05:38:57 10° N 05:39:52 13° NNE 05:39:52 13° NNE visible
24 Apr 5.4 05:38:07 10° N 05:39:17 15° N 05:39:17 15° N visible
25 Apr 5.2 05:37:24 10° NNW 05:38:44 17° N 05:38:44 17° N visible
26 Apr 5.1 05:36:47 10° NNW 05:38:11 19° N 05:38:11 19° N visible
